THOR ABLESTAR DEB, 246

Orbit data source: Space-Track

THOR ABLESTAR DEB, 246 is space debris in LEO originally from a launch on Thu, 29 Jun 1961 UTC launched from the Air Force Eastern Test Range (AFETR). Debris objects in space refer to the collection of defunct objects orbiting the Earth. Examples of debris include non-operational satellites, rocket bodies, and fragments generated from explosions, collisions, or faulty payload assembly.

Loading next visibility...
Identifier
246, 1961-015CB
Orbit
LEO
Country
Flag of USUS
Related business
Manufacturer
Unknown
Mission
Spacecraft
Bus & Motor
Unknown
Mass
Unknown
Launch date (UTC)
1961-06-29 (65 years ago)
Launch vehicle
Unknown
Launch site
Air Force Eastern Test Range (AFETR)
Object type
Payload
Rocket body
Debris
Shape & HBR
Unknown shape, 0.2 m
Radar Cross Section
Medium (>0.1 m² and <1 m²)

Expand to show TLE details & history
Last TLE update: 16 hours ago

TLE from 16 hours ago
0 THOR ABLESTAR DEB
1 00246U 61015CB  26127.83945435  .00000007  00000-0  70084-4 0  9994
2 00246  66.8691 289.3974 0063655 167.3382 192.9313 13.86154707618271
Epoch: 2026-05-07T20:08Z
TLE epoch observation values (Epoch: 2026-05-07T20:08:48.855Z)
Latitude
0.00003°
Longitude
121.51402°
Altitude
989.65 km
Speed
7.334 km/s
True Right ascension
19h 17m 35s
True Declination
0° 00' 00"
Sunlit
Object was in daylight at epoch
Visualization orbit readout
Latitude
Unknown
Longitude
Unknown
Altitude
Unknown
Speed
Unknown
Apparent Right ascension
Unknown
Apparent Declination
Unknown
Sunlit
N/A
Visualization observer readout
Local Sidereal Time
20:35:56
Azimuth
Unknown
Elevation
Unknown
Doppler factor
Unknown
Orbital elements
Apogee altitude
987.114 km
Perigee altitude
893.94 km
Semi-major axis
7,318.664 km
Eccentricity
0.00637
Inclination
66.8691°
RAAN
289.3974°
Arg. of periapsis
167.3382°
True anomaly
192.76932°
Mean anomaly
192.9313°
Eccentric anomaly
192.85019°
Mean motion
3.46653 °/min
Orbital period
103.85 mins
BSTAR
0.000070084
Loading maneuver chart data...
Computing Atmospheric mass density...
Loading historical data...
Loading historical data...
Loading historical data...
Loading historical data...
Loading historical data...
Loading historical data...
Loading historical data...

Documentation

Showing up to 5 results
|